Stations météo

réclame
Mon MeteoGroup
Larkhill, Grande-Bretagne (3743): Température de l'air & dewpoint: 21.02.2020 02:00:00 - 27.02.2020 02:00:00 (GMT)Larkhill, Grande-Bretagne (3743): Température de l'air -20cm & Température de l'air -100cm: 21.02.2020 02:00:00 - 27.02.2020 02:00:00 (GMT)Larkhill, Grande-Bretagne (3743): Vitesse du vent & gusts: 21.02.2020 02:00:00 - 27.02.2020 02:00:00 (GMT)Larkhill, Grande-Bretagne (3743): Direction du vent: 21.02.2020 02:00:00 - 27.02.2020 02:00:00 (GMT)Larkhill, Grande-Bretagne (3743): reduced air pressure: 21.02.2020 02:00:00 - 27.02.2020 02:00:00 (GMT)Larkhill, Grande-Bretagne (3743): visibility: 21.02.2020 02:00:00 - 27.02.2020 02:00:00 (GMT)Larkhill, Grande-Bretagne (3743): Quantités de précipitations: 21.02.2020 02:00:00 - 27.02.2020 02:00:00 (GMT)
Date & Time tt [°C] td [°C] tt -20cm [°C] tt -100cm [°C] ff [km/h] ff [knt] fx [km/h] fx [knt] dd ppp [hPa] vv [km] rr [mm]
27.02.2020 02:00:00 - - - - - - - - - - - -
27.02.2020 01:00:00 2,8 0,0 - - 4 2 - - S 1003,3 30 0,0
27.02.2020 00:00:00 2,5 -0,3 - - 5 3 - - S 1004,8 35 0,0
26.02.2020 23:00:00 2,6 -0,5 - - 5 3 - - SSW 1006,3 35 0,0
26.02.2020 22:00:00 2,7 -0,5 - - 5 3 - - SW 1007,6 35 0,0
26.02.2020 21:00:00 2,6 -0,2 - - 11 6 - - WSW 1008,3 30 0,0
26.02.2020 20:00:00 2,8 -0,2 - - 11 6 - - SW 1009,1 30 0,0
26.02.2020 19:00:00 3,1 -0,3 - - 9 5 - - WSW 1009,4 30 0,0
26.02.2020 18:00:00 4,2 -0,4 - - 13 7 - - WSW 1009,3 40 0,0
26.02.2020 17:00:00 5,6 -0,1 - - 16 9 - - W 1009,1 35 0,0
26.02.2020 16:00:00 7,5 -0,2 - - 21 11 - - W 1008,8 45 0,0
26.02.2020 15:00:00 6,1 -0,1 - - 16 9 - - WNW 1008,4 45 0,0
26.02.2020 14:00:00 6,4 0,5 - - 18 10 46 25 WNW 1008,1 45 0,0
26.02.2020 13:00:00 6,6 0,9 - - 18 10 - - W 1007,6 40 0,0
26.02.2020 12:00:00 6,2 0,4 - - 21 11 - - W 1007,2 35 0,0
26.02.2020 11:00:00 5,8 0,6 - - 24 13 46 25 W 1006,7 35 0,0
26.02.2020 10:00:00 4,9 0,6 - - 26 14 46 25 W 1006,1 40 0,0
26.02.2020 09:00:00 4,1 0,4 7,7 8,2 26 14 48 26 W 1005,2 40 0,0
26.02.2020 08:00:00 3,1 0,2 - - 24 13 - - W 1004,2 35 0,0
26.02.2020 07:00:00 2,3 -0,3 - - 22 12 - - W 1003,0 50 0,0
26.02.2020 06:00:00 2,0 -0,6 - - 18 10 - - W 1002,3 25 0,0
26.02.2020 05:00:00 1,5 -0,9 - - 18 10 - - W 1001,6 60 0,0
26.02.2020 04:00:00 0,5 -1,6 - - 8 4 - - W 1001,1 55 0,0
26.02.2020 03:00:00 0,6 -1,3 - - 13 7 - - WSW 1000,7 30 0,0
26.02.2020 02:00:00 1,4 -1,5 - - 13 7 - - W 1000,1 35 0,0
26.02.2020 01:00:00 1,6 -1,3 - - 15 8 - - W 999,7 35 0,0
26.02.2020 00:00:00 1,9 -1,2 - - 21 11 - - W 999,6 45 0,0
25.02.2020 23:00:00 2,0 -1,0 - - 18 10 - - W 998,8 45 0,0
25.02.2020 22:00:00 1,8 -0,1 - - 18 10 - - WSW 998,5 45 0,0
25.02.2020 21:00:00 2,5 0,1 - - 24 13 46 25 WSW 998,3 55 0,0
25.02.2020 20:00:00 1,9 0,1 - - 21 11 50 27 WSW 998,2 50 0,0
25.02.2020 19:00:00 3,2 0,6 - - 24 13 48 26 W 998,0 45 0,0
25.02.2020 18:00:00 3,6 0,7 - - 24 13 - - WSW 997,5 30 0,2
25.02.2020 17:00:00 3,5 1,8 - - 18 10 - - WSW 997,7 50 0,0
25.02.2020 16:00:00 3,6 2,5 - - 15 8 - - WSW 998,2 50 1,0
25.02.2020 15:00:00 3,7 2,0 - - 24 13 50 27 WSW 999,0 6 0,4
25.02.2020 14:00:00 6,3 2,3 - - 22 12 - - WSW 999,4 35 0,2
25.02.2020 13:00:00 6,9 3,5 - - 21 11 - - W 1000,4 35 0,2
25.02.2020 12:00:00 6,5 2,4 - - 22 12 - - WSW 1001,3 50 0,0
25.02.2020 11:00:00 5,9 2,9 - - 22 12 - - WSW 1001,8 35 0,0
25.02.2020 10:00:00 5,0 2,1 - - 22 12 - - WSW 1002,4 35 0,0
25.02.2020 09:00:00 5,4 3,4 8,0 8,2 15 8 - - WSW 1003,0 50 0,0
25.02.2020 08:00:00 4,4 2,8 - - 13 7 - - SW 1003,4 35 0,0
25.02.2020 07:00:00 3,9 2,2 - - 11 6 - - WSW 1004,0 25 0,0
25.02.2020 06:00:00 4,4 2,9 - - 15 8 - - SW 1004,7 20 0,0
25.02.2020 05:00:00 4,1 2,5 - - 13 7 - - SW 1005,1 40 0,0
25.02.2020 04:00:00 4,3 2,7 - - 15 8 - - WSW 1005,5 35 0,0
25.02.2020 03:00:00 5,4 3,6 - - 13 7 - - WSW 1005,9 40 0,0
25.02.2020 02:00:00 5,7 3,9 - - 15 8 - - WSW 1006,2 40 0,0
25.02.2020 01:00:00 6,0 3,7 - - 18 10 - - WSW 1006,5 45 0,0
25.02.2020 00:00:00 6,0 3,7 - - 15 8 - - WSW 1006,6 45 0,0
24.02.2020 23:00:00 7,1 4,5 - - 16 9 - - WSW 1006,9 35 0,0
24.02.2020 22:00:00 6,5 4,3 - - 16 9 - - W 1007,4 35 0,0
24.02.2020 21:00:00 7,2 4,6 - - 22 12 - - W 1007,3 30 0,0
24.02.2020 20:00:00 7,8 4,9 - - 24 13 - - WSW 1007,1 30 0,0
24.02.2020 19:00:00 8,4 5,9 - - 22 12 55 30 WSW 1006,8 30 0,0
24.02.2020 18:00:00 9,8 6,8 - - 21 11 - - W 1006,0 25 0,0
24.02.2020 17:00:00 10,8 8,2 - - 22 12 59 32 WSW 1005,6 25 0,0
24.02.2020 16:00:00 11,2 9,2 - - 28 15 46 25 WSW 1005,4 20 0,2
24.02.2020 15:00:00 10,4 9,7 - - 21 11 - - SW 1005,9 8 0,0
24.02.2020 14:00:00 10,2 9,4 - - 22 12 - - SW 1006,5 10 0,0
24.02.2020 13:00:00 10,0 9,2 - - 22 12 - - SW 1007,2 25 1,0
24.02.2020 12:00:00 9,8 9,1 - - 22 12 48 26 SW 1008,2 10 1,6
24.02.2020 11:00:00 9,8 8,8 - - 29 16 52 28 SW 1008,6 8 0,8
24.02.2020 10:00:00 10,0 8,8 - - 29 16 55 30 SW 1009,3 12 0,0
24.02.2020 09:00:00 10,1 8,4 7,9 8,2 29 16 57 31 SW 1009,8 12 0,0
24.02.2020 08:00:00 9,8 8,3 - - 26 14 59 32 SW 1010,9 20 0,0
24.02.2020 07:00:00 10,0 8,0 - - 24 13 46 25 SW 1011,7 25 0,0
24.02.2020 06:00:00 9,9 9,4 - - 22 12 - - SW 1013,4 25 0,2
24.02.2020 05:00:00 8,2 8,0 - - 13 7 - - S 1014,6 2,6 0,0
24.02.2020 04:00:00 6,6 6,4 - - 9 5 - - S 1017,0 4,8 0,6
24.02.2020 03:00:00 6,3 6,0 - - 13 7 - - SE 1018,6 2,0 2,0
24.02.2020 02:00:00 6,0 5,6 - - 13 7 - - SE 1020,5 1,8 0,6
24.02.2020 01:00:00 6,0 5,6 - - 9 5 - - SE 1021,9 5 0,2
24.02.2020 00:00:00 6,4 5,8 - - 5 3 - - SSE 1022,8 9 0,2
23.02.2020 23:00:00 6,6 4,6 - - 4 2 - - S 1023,7 10 0,2
23.02.2020 22:00:00 6,7 3,6 - - 5 3 - - WSW 1024,3 15 0,2
23.02.2020 21:00:00 7,3 2,5 - - 4 2 - - WSW 1024,2 75 0,0
23.02.2020 20:00:00 7,4 3,2 - - 4 2 - - WSW 1024,1 75 0,0
23.02.2020 19:00:00 7,7 2,8 - - 4 2 - - W 1023,9 75 0,0
23.02.2020 18:00:00 8,2 2,8 - - 5 3 - - WNW 1023,0 75 0,0
23.02.2020 17:00:00 9,1 3,3 - - 13 7 - - WNW 1021,9 75 0,0
23.02.2020 16:00:00 10,1 4,6 - - 15 8 - - WNW 1020,5 75 0,0
23.02.2020 15:00:00 11,0 5,0 - - 18 10 48 26 WNW 1019,4 50 0,0
23.02.2020 14:00:00 11,7 7,1 - - 28 15 57 31 W 1018,2 40 0,0
23.02.2020 13:00:00 11,5 7,2 - - 34 18 65 35 W 1016,9 30 0,0
23.02.2020 12:00:00 11,7 9,2 - - 39 21 61 33 W 1015,8 25 0,0
23.02.2020 11:00:00 12,5 10,4 - - 26 14 57 31 W 1014,5 21 0,0
23.02.2020 10:00:00 12,1 10,8 - - 35 19 61 33 WSW 1013,5 4,1 0,4
23.02.2020 09:00:00 12,0 10,6 7,5 8,0 31 17 61 33 WSW 1012,9 8 0,0
23.02.2020 08:00:00 11,3 10,5 - - 28 15 52 28 WSW 1013,1 5 0,4
23.02.2020 07:00:00 10,7 10,1 - - 26 14 55 30 SW 1012,8 1,7 0,2
23.02.2020 06:00:00 11,1 10,1 - - 28 15 54 29 SW 1012,3 20 0,2
23.02.2020 05:00:00 11,2 10,3 - - 28 15 59 32 SW 1013,1 5 0,0
23.02.2020 04:00:00 11,3 10,1 - - 31 17 59 32 SW 1013,2 60 0,0
23.02.2020 03:00:00 10,7 9,9 - - 35 19 61 33 SW 1014,2 8 0,0
23.02.2020 02:00:00 8,7 8,0 - - 15 8 - - SSW 1016,8 3,5 0,6
23.02.2020 01:00:00 8,4 6,6 - - 15 8 - - S 1018,8 10 0,2
23.02.2020 00:00:00 8,5 5,9 - - 18 10 - - WSW 1021,3 12 0,0
22.02.2020 23:00:00 8,7 5,8 - - 15 8 - - SW 1021,6 19 0,0
22.02.2020 22:00:00 7,9 6,4 - - 18 10 - - WSW 1022,3 7 0,0
22.02.2020 21:00:00 7,5 6,4 - - 13 7 - - WSW 1022,4 13 0,2
22.02.2020 20:00:00 8,5 5,3 - - 22 12 - - WSW 1022,1 21 0,0
22.02.2020 19:00:00 8,2 5,5 - - 18 10 - - SW 1022,2 25 0,0
22.02.2020 18:00:00 8,6 5,7 - - 26 14 48 26 WSW 1021,8 14 0,0
22.02.2020 17:00:00 10,0 4,8 - - 26 14 46 25 W 1021,5 - 0,0
22.02.2020 16:00:00 10,7 5,3 - - 28 15 54 29 W 1021,2 - 0,0
22.02.2020 15:00:00 11,0 6,2 - - 18 10 46 25 W 1020,4 - 0,0
22.02.2020 14:00:00 11,7 5,5 - - 28 15 57 31 WSW 1019,9 - 0,0
22.02.2020 13:00:00 12,1 6,1 - - 29 16 52 28 WSW 1019,2 - 0,0
22.02.2020 12:00:00 11,6 6,2 - - 29 16 54 29 WSW 1019,1 - 0,0
22.02.2020 11:00:00 11,0 6,3 - - 28 15 57 31 WSW 1018,6 - 0,0
22.02.2020 10:00:00 10,4 7,2 - - 29 16 54 29 WSW 1017,9 - 0,8
22.02.2020 09:00:00 9,8 9,0 7,0 8,2 26 14 - - SW 1017,2 6 0,0
22.02.2020 08:00:00 9,5 8,4 - - 22 12 - - SW 1016,9 25 0,0
22.02.2020 07:00:00 9,5 7,8 - - 26 14 - - SW 1016,8 17 0,0
22.02.2020 06:00:00 9,0 7,6 - - 22 12 59 32 SW 1016,4 19 0,0
22.02.2020 05:00:00 9,3 6,9 - - 28 15 57 31 SW 1016,5 14 0,0
22.02.2020 04:00:00 9,0 6,2 - - 29 16 61 33 SW 1015,3 17 0,0
22.02.2020 03:00:00 8,8 5,5 - - 29 16 61 33 SW 1016,3 18 0,0
22.02.2020 02:00:00 8,8 5,2 - - 28 15 52 28 SW 1017,3 19 0,0
22.02.2020 01:00:00 8,5 5,1 - - 28 15 54 29 SW 1018,5 19 0,0
22.02.2020 00:00:00 8,5 4,9 - - 24 13 46 25 SW 1019,1 21 0,0
21.02.2020 23:00:00 8,8 5,0 - - 28 15 52 28 SW 1019,8 21 0,0
21.02.2020 22:00:00 8,6 5,1 - - 21 11 - - SW 1020,3 21 0,0
21.02.2020 21:00:00 8,7 5,0 - - 24 13 - - SW 1020,8 22 0,0
21.02.2020 20:00:00 8,6 5,3 - - 24 13 - - SW 1020,9 21 0,0
21.02.2020 19:00:00 8,5 5,4 - - 22 12 - - SW 1021,6 19 0,0
21.02.2020 18:00:00 8,5 5,3 - - 21 11 - - SW 1021,6 19 0,0
21.02.2020 17:00:00 9,2 5,8 - - 16 9 - - SW 1022,1 16 0,0
21.02.2020 16:00:00 9,3 5,4 - - 21 11 - - SW 1021,7 20 0,0
21.02.2020 15:00:00 9,3 5,3 - - 18 10 - - SW 1022,2 25 0,0
21.02.2020 14:00:00 9,3 4,7 - - 18 10 46 25 SW 1022,4 30 0,0
21.02.2020 13:00:00 9,2 4,0 - - 24 13 - - WSW 1023,3 25 0,0
21.02.2020 12:00:00 8,6 3,9 - - 24 13 48 26 SW 1023,6 25 0,0
21.02.2020 11:00:00 8,2 3,1 - - 24 13 50 27 SW 1023,9 30 0,0
21.02.2020 10:00:00 7,6 3,1 - - 26 14 46 25 SW 1024,1 30 0,0
21.02.2020 09:00:00 6,4 2,9 7,0 8,2 16 9 - - SW 1024,1 30 0,0
21.02.2020 08:00:00 5,6 2,5 - - 18 10 - - SW 1023,9 30 0,0
21.02.2020 07:00:00 4,6 2,1 - - 13 7 - - SW 1024,2 30 0,0
21.02.2020 06:00:00 4,2 1,7 - - 16 9 - - SW 1024,1 25 0,0
21.02.2020 05:00:00 3,5 1,3 - - 11 6 - - SW 1024,5 27 0,0
21.02.2020 04:00:00 3,3 1,3 - - 15 8 - - SW 1024,5 24 0,0
21.02.2020 03:00:00 2,8 0,7 - - 13 7 - - WSW 1024,9 23 0,0
21.02.2020 02:00:00 2,5 0,2 - - 9 5 - - SW 1024,5 25 0,0

tt = Température de l'air
td = dewpoint
tt -20cm = Température de l'air -20cm
tt -100cm = Température de l'air -100cm
ff = Vitesse du vent
fx = gusts
dd = Direction du vent
ppp = reduced air pressure
vv = visibility
rr = Quantités de précipitations

stations d'obs. à proximité